• In Netherlands
  • List of Countries
  • For 7 days
  • Water Temperature
  • Satellite Maps
  • Weather Map
  • Weather Widgets
  • user-avatar
    Login

    Hourly Weather Naftalan

    Today, 24 May, Wednesday

    Time Temperature Precipitation Wind Pressure Humidity
    00:00 +19°C° 0 mm 5 mps 761 mmHg 77%
    01:00 +17°C° 0 mm 5 mps 761 mmHg 79%
    02:00 +17°C° 0 mm 5 mps 761 mmHg 81%
    03:00 +18°C° 0 mm 4 mps 760 mmHg 81%
    04:00 +19°C° 0 mm 4 mps 761 mmHg 79%
    05:00 +19°C° 0 mm 4 mps 761 mmHg 77%
    06:00 +20°C° 0 mm 4 mps 761 mmHg 75%
    07:00 +21°C° 0.2 mm 5 mps 761 mmHg 69%
    08:00 +22°C° 0.2 mm 5 mps 761 mmHg 63%
    09:00 +25°C° 0 mm 5 mps 761 mmHg 56%
    10:00 +26°C° 0 mm 5 mps 761 mmHg 53%
    11:00 +27°C° 0 mm 5 mps 761 mmHg 49%
    12:00 +28°C° 0 mm 5 mps 760 mmHg 46%
    13:00 +28°C° 0 mm 6 mps 760 mmHg 46%
    14:00 +28°C° 0 mm 6 mps 760 mmHg 45%
    15:00 +28°C° 0 mm 6 mps 760 mmHg 45%
    16:00 +27°C° 0 mm 5 mps 760 mmHg 49%
    17:00 +25°C° 0 mm 5 mps 760 mmHg 54%
    18:00 +23°C° 0 mm 5 mps 760 mmHg 58%
    19:00 +22°C° 0 mm 5 mps 761 mmHg 61%
    20:00 +20°C° 0 mm 5 mps 761 mmHg 65%
    21:00 +19°C° 0 mm 5 mps 762 mmHg 69%
    22:00 +19°C° 0 mm 4 mps 762 mmHg 71%
    23:00 +18°C° 0 mm 4 mps 762 mmHg 72%

    Tomorrow, 25 May, Thursday

    Time Temperature Precipitation Wind Pressure Humidity
    00:00 +18°C° 0 mm 4 mps 763 mmHg 74%
    01:00 +18°C° 0 mm 4 mps 763 mmHg 75%
    02:00 +17°C° 0 mm 3 mps 763 mmHg 76%
    03:00 +17°C° 0 mm 3 mps 763 mmHg 76%
    04:00 +18°C° 0 mm 3 mps 763 mmHg 73%
    05:00 +19°C° 0 mm 3 mps 764 mmHg 69%
    06:00 +20°C° 0 mm 3 mps 764 mmHg 66%
    07:00 +22°C° 0 mm 3 mps 764 mmHg 58%
    08:00 +25°C° 0 mm 3 mps 764 mmHg 50%
    09:00 +26°C° 0 mm 3 mps 764 mmHg 42%
    10:00 +27°C° 0 mm 3 mps 764 mmHg 40%
    11:00 +28°C° 0 mm 3 mps 764 mmHg 37%
    12:00 +29°C° 0 mm 4 mps 764 mmHg 35%
    13:00 +29°C° 0 mm 4 mps 763 mmHg 37%
    14:00 +30°C° 0 mm 5 mps 763 mmHg 38%
    15:00 +30°C° 0 mm 5 mps 763 mmHg 40%
    16:00 +28°C° 0 mm 5 mps 763 mmHg 47%
    17:00 +26°C° 0 mm 5 mps 763 mmHg 55%
    18:00 +24°C° 0 mm 6 mps 763 mmHg 62%
    19:00 +22°C° 0 mm 5 mps 764 mmHg 67%
    20:00 +21°C° 0 mm 5 mps 764 mmHg 72%
    21:00 +20°C° 0 mm 4 mps 765 mmHg 77%
    22:00 +19°C° 0 mm 4 mps 765 mmHg 77%
    23:00 +19°C° 0 mm 3 mps 765 mmHg 78%

    Day after tomorrow, 26 May, Friday

    Time Temperature Precipitation Wind Pressure Humidity
    00:00 +19°C° 0 mm 3 mps 765 mmHg 78%
    01:00 +18°C° 0 mm 3 mps 764 mmHg 79%
    02:00 +18°C° 0 mm 3 mps 764 mmHg 79%
    03:00 +17°C° 0 mm 3 mps 764 mmHg 80%
    04:00 +18°C° 0 mm 3 mps 764 mmHg 77%
    05:00 +19°C° 0 mm 2 mps 765 mmHg 74%
    06:00 +20°C° 0 mm 2 mps 765 mmHg 71%
    07:00 +21°C° 0 mm 2 mps 765 mmHg 65%
    08:00 +24°C° 0 mm 3 mps 765 mmHg 59%
    09:00 +25°C° 0 mm 3 mps 765 mmHg 53%
    10:00 +26°C° 0 mm 3 mps 764 mmHg 51%
    11:00 +27°C° 0 mm 4 mps 764 mmHg 49%
    12:00 +28°C° 0 mm 4 mps 764 mmHg 47%
    13:00 +28°C° 0 mm 5 mps 763 mmHg 47%
    14:00 +28°C° 0 mm 5 mps 762 mmHg 47%
    15:00 +28°C° 0 mm 5 mps 762 mmHg 47%
    16:00 +26°C° 0 mm 5 mps 762 mmHg 52%
    17:00 +25°C° 0 mm 5 mps 762 mmHg 56%
    18:00 +23°C° 0 mm 4 mps 762 mmHg 60%
    19:00 +22°C° 0 mm 4 mps 762 mmHg 66%
    20:00 +21°C° 0 mm 4 mps 762 mmHg 72%
    21:00 +19°C° 0 mm 3 mps 763 mmHg 78%
    22:00 +19°C° 0 mm 3 mps 762 mmHg 80%
    23:00 +19°C° 0 mm 2 mps 762 mmHg 83%

    27 May, Saturday

    Time Temperature Precipitation Wind Pressure Humidity
    00:00 +18°C° 0 mm 2 mps 762 mmHg 85%
    01:00 +18°C° 0 mm 2 mps 762 mmHg 87%
    02:00 +17°C° 0 mm 2 mps 762 mmHg 88%
    03:00 +17°C° 0 mm 2 mps 762 mmHg 89%
    04:00 +18°C° 0 mm 2 mps 762 mmHg 85%
    05:00 +20°C° 0 mm 1 mps 762 mmHg 80%
    06:00 +21°C° 0 mm 1 mps 762 mmHg 76%
    07:00 +21°C° 0 mm 2 mps 762 mmHg 69%
    08:00 +24°C° 0 mm 2 mps 761 mmHg 61%
    09:00 +26°C° 0 mm 2 mps 761 mmHg 54%
    10:00 +27°C° 0 mm 2 mps 760 mmHg 50%
    11:00 +28°C° 0 mm 3 mps 760 mmHg 46%
    12:00 +29°C° 0 mm 3 mps 759 mmHg 43%
    13:00 +29°C° 0.1 mm 4 mps 758 mmHg 42%
    14:00 +29°C° 0.1 mm 4 mps 758 mmHg 42%
    15:00 +29°C° 0.1 mm 4 mps 757 mmHg 42%
    16:00 +28°C° 0.6 mm 4 mps 757 mmHg 47%
    17:00 +26°C° 0.6 mm 4 mps 756 mmHg 52%
    18:00 +25°C° 0.6 mm 4 mps 756 mmHg 57%
    19:00 +22°C° 0.1 mm 3 mps 756 mmHg 63%
    20:00 +21°C° 0.1 mm 3 mps 756 mmHg 69%
    21:00 +19°C° 0.1 mm 2 mps 757 mmHg 75%
    22:00 +19°C° 0 mm 3 mps 757 mmHg 75%
    23:00 +19°C° 0 mm 3 mps 756 mmHg 75%

    28 May, Sunday

    Time Temperature Precipitation Wind Pressure Humidity
    00:00 +19°C° 0 mm 4 mps 756 mmHg 75%
    01:00 +19°C° 0 mm 4 mps 756 mmHg 76%
    02:00 +19°C° 0 mm 4 mps 756 mmHg 77%
    03:00 +19°C° 0 mm 5 mps 756 mmHg 78%
    04:00 +20°C° 0 mm 5 mps 757 mmHg 74%
    05:00 +20°C° 0 mm 5 mps 757 mmHg 71%
    06:00 +21°C° 0 mm 6 mps 758 mmHg 68%
    07:00 +23°C° 0 mm 6 mps 758 mmHg 58%
    08:00 +27°C° 0 mm 5 mps 759 mmHg 47%
    09:00 +29°C° 0 mm 5 mps 759 mmHg 36%
    10:00 +30°C° 0 mm 5 mps 759 mmHg 33%
    11:00 +33°C° 0 mm 5 mps 759 mmHg 29%
    12:00 +34°C° 0 mm 4 mps 758 mmHg 26%
    13:00 +34°C° 0 mm 5 mps 758 mmHg 29%
    14:00 +33°C° 0 mm 6 mps 758 mmHg 32%
    15:00 +33°C° 0 mm 6 mps 758 mmHg 35%
    16:00 +30°C° 0 mm 6 mps 758 mmHg 43%
    17:00 +28°C° 0 mm 6 mps 758 mmHg 51%
    18:00 +26°C° 0 mm 6 mps 758 mmHg 58%
    19:00 +23°C° 0 mm 6 mps 758 mmHg 64%
    20:00 +22°C° 0 mm 5 mps 758 mmHg 70%
    21:00 +21°C° 0 mm 4 mps 758 mmHg 76%
    22:00 +20°C° 0 mm 3 mps 758 mmHg 79%
    23:00 +19°C° 0 mm 2 mps 758 mmHg 81%

    29 May, Monday

    Time Temperature Precipitation Wind Pressure Humidity
    00:00 +19°C° 0 mm 2 mps 758 mmHg 83%
    01:00 +19°C° 0 mm 2 mps 758 mmHg 82%
    02:00 +19°C° 0 mm 3 mps 758 mmHg 81%
    03:00 +19°C° 0 mm 4 mps 758 mmHg 80%
    04:00 +20°C° 0 mm 4 mps 759 mmHg 76%
    05:00 +21°C° 0 mm 5 mps 760 mmHg 72%
    06:00 +21°C° 0 mm 6 mps 760 mmHg 67%
    07:00 +23°C° 0 mm 6 mps 761 mmHg 58%
    08:00 +26°C° 0 mm 6 mps 761 mmHg 48%
    09:00 +28°C° 0 mm 6 mps 762 mmHg 38%
    10:00 +28°C° 0 mm 8 mps 762 mmHg 39%
    11:00 +28°C° 0 mm 9 mps 762 mmHg 40%
    12:00 +29°C° 0 mm 11 mps 763 mmHg 41%
    13:00 +27°C° 0 mm 12 mps 763 mmHg 44%
    14:00 +24°C° 0 mm 12 mps 763 mmHg 46%
    15:00 +23°C° 0 mm 13 mps 764 mmHg 48%
    16:00 +21°C° 0 mm 12 mps 765 mmHg 50%
    17:00 +19°C° 0 mm 12 mps 765 mmHg 51%
    18:00 +17°C° 0 mm 12 mps 766 mmHg 53%
    19:00 +17°C° 0 mm 11 mps 767 mmHg 54%
    20:00 +16°C° 0 mm 11 mps 768 mmHg 54%
    21:00 +14°C° 0 mm 11 mps 769 mmHg 55%
    22:00 +14°C° 0 mm 10 mps 769 mmHg 56%
    23:00 +14°C° 0 mm 10 mps 770 mmHg 56%
    Show more